Preview of NWS' New Version of Forecast
This preview is not operational and should not be used for support decisions.

Regional Weather Roundup (RWR)

Issued by National Weather Service (NWS)

                            
000
ASUS43 KTOP 182159
RWRKS 

WEATHER ROUNDUP FOR KANSAS
NATIONAL WEATHER SERVICE GOODLAND KS
400 PM CST MON FEB 18 2019

NOTE:  "FAIR" INDICATES FEW OR NO CLOUDS BELOW 12,000 FEET WITH NO
SIGNIFICANT WEATHER AND/OR OBSTRUCTIONS TO VISIBILITY.

KSZ001>006-013>018-027>032-041>047-182300-
NORTHWEST KANSAS
  
CITY           SKY/WX    TMP DP  RH WIND       PRES   REMARKS
GOODLAND       CLOUDY    18  10  71 SE9       30.23F                  
HAYS           CLOUDY    20  12  71 E8        30.42R                  
HILL CITY      CLOUDY    21  10  62 VRB6      30.39F                  
RUSSELL        CLOUDY    20  13  74 N9        30.41F                  
$$

KSZ061>065-074>080-084>089-182300-
SOUTHWEST KANSAS
  
CITY           SKY/WX    TMP DP  RH WIND       PRES   REMARKS
DODGE CITY     CLOUDY    22  14  71 NE8       30.34F                  
ELKHART        PTSUNNY   23  15  72 E6        30.23F                  
GARDEN CITY    CLOUDY    17  12  80 E7        30.31F                  
GREAT BEND     CLOUDY    23  13  65 NE6       30.42S                  
LIBERAL        MOSUNNY   28  13  53 E7        30.29F                  
$$

KSZ066>073-081>083-090>101-182300-
SOUTHEAST KANSAS
  
CITY           SKY/WX    TMP DP  RH WIND       PRES   REMARKS
CHANUTE        MOSUNNY   33  17  51 NE8       30.46S                  
COFFEYVILLE    MOSUNNY   34  19  54 NE8       30.44F                  
HUTCHINSON     CLOUDY    24  13  62 NE9       30.44F                  
MEDICINE LODGE   N/A     30  11  45 NE9       30.40F                  
NEWTON         PTSUNNY   27  15  61 NE9       30.44F                  
PARSONS        SUNNY     33  18  53 NE7       30.45F                  
WICHITA INTL   PTSUNNY   30  13  49 N8        30.43S                  
WICHITA JABRA  PTSUNNY   29  12  49 NE9       30.43F                  
WICHITA MCCONL CLOUDY    30  12  47 NE8       30.42F                  
WINFIELD       MOSUNNY   35  12  38 N12       30.42F WCI  27          
$$

KSZ007>012-019>026-033>040-048>060-102>105-182300-
NORTHEAST KANSAS
  
CITY           SKY/WX    TMP DP  RH WIND       PRES   REMARKS
CONCORDIA      LGT SNOW  19  12  74 NE8       30.46S                  
EMPORIA        MOSUNNY   27  17  66 NE7       30.46S                  
LAWRENCE       PTSUNNY   27  16  63 NE3       30.50S                  
MANHATTAN      CLOUDY    25  16  68 NE5       30.49R                  
OLATHE IND     CLOUDY    24  16  71 N3        30.48R                  
OLATHE EXE     CLOUDY    26  15  63 VRB3      30.47R                  
SALINA         PTSUNNY   23  14  68 N8        30.48F                  
TOPEKA BILLARD CLOUDY    25  15  66 N9        30.50R                  
TOPEKA FORBES  PTSUNNY   26  15  63 N8        30.48R                  
$$